Location: Oberstdorf
(47.4188°N, 10.2969°E)
Time: 05:47:59
(UTC+01:00)

ISS - Visible Passes

Search period start: 22 March 2019 00:00
Search period end: 01 April 2019 01:00
Orbit: 406 x 411 km, 51.6° (Epoch: 22 March)

Date Brightness Start Highest point End Pass type
(mag) Time Alt. Az. Time Alt. Az. Time Alt. Az.
22 Mar -2.6 19:36:58 10° SSW 19:39:43 24° SE 19:40:45 21° ESE visible
22 Mar -1.1 21:12:46 10° WSW 21:13:32 16° WSW 21:13:32 16° WSW visible
23 Mar -4.0 20:21:43 10° WSW 20:25:01 81° SSE 20:25:11 76° ESE visible
24 Mar -3.6 19:30:48 10° SW 19:34:00 51° SSE 19:36:40 14° ENE visible
24 Mar -1.9 21:07:25 10° W 21:09:25 30° WNW 21:09:25 30° WNW visible
25 Mar -3.4 20:16:13 10° W 20:19:29 59° NNW 20:20:45 33° NE visible
25 Mar -0.4 21:53:17 10° WNW 21:53:29 11° WNW 21:53:29 11° WNW visible
26 Mar -3.8 19:25:04 10° WSW 19:28:22 84° NNW 19:31:42 10° ENE visible
26 Mar -2.3 21:02:05 10° WNW 21:04:40 35° NNW 21:04:40 35° NNW visible
27 Mar -2.8 20:10:49 10° W 20:14:00 42° N 20:15:45 22° NE visible
27 Mar -0.7 21:47:47 10° WNW 21:48:29 15° WNW 21:48:29 15° WNW visible
28 Mar -3.1 19:19:34 10° W 19:22:48 52° NNW 19:26:04 10° ENE visible
28 Mar -2.6 20:56:37 10° WNW 20:59:29 37° N 20:59:29 37° N visible
29 Mar -2.6 20:05:24 10° WNW 20:08:31 37° N 20:10:27 19° ENE visible
29 Mar -1.0 21:42:09 10° WNW 21:43:11 18° WNW 21:43:11 18° WNW visible
30 Mar -2.7 19:14:07 10° W 19:17:16 40° N 19:20:25 10° ENE visible
30 Mar -3.0 20:51:01 10° WNW 20:54:05 46° N 20:54:05 46° N visible
31 Mar -2.8 20:59:50 10° WNW 21:02:59 40° N 21:04:59 19° ENE visible
31 Mar -1.3 22:36:26 10° WNW 22:37:42 21° WNW 22:37:42 21° WNW visible
